Location: Go�ngahuizen
(53.0821°N, 5.8849°E)
Time: 23:31:18
(UTC+00:00)

Cosmos 2360 Rocket - Pass Details

Date: 09 April 2020
Orbit: 834 x 845 km, 71.0° (Epoch: 26 May)

Event Time Altitude Azimuth Distance (km) Brightness Sun altitude
Rises 23:12:07 0° 328° (NNW) 3,396 6.3 -28.6°
Reaches altitude 10° 23:14:33 10° 328° (NNW) 2,459 5.4 -28.7°
Enters shadow 23:19:50 79° 325° (NW) 859 2.2 -28.8°
